TIME,DELAY(SENSOR),PRES,T(CTD),SAL,OXYGEN,RAWTEMP,T(OPTODE),TCPHASE,FLUOR,BETA(BETA700),BETA(BETA412),BETA(BETA440),CDOM,C(CSC),ED(ED412.40),ED(ED444.00),ED(ED489.70),ED(ED554.30),LU(LU411.80),LU(LU443.40),LU(LU489.60),LU(LU554.10),COMP,TILTX,TILTX(TILTY),CHECK
1375907332,5808,497.9100036621094000,6.5556001663208010,34.1268005371093750,76.7719268798828100,601.4304199218750000,6.5380520820617680,49.3102912902832000,51,103,87,79,77,15315,2147747830,2147426541,2148005083,2147874523,2147629357,2147068608,2148242779,2147197229,3484,4,13,22045
1375907483,5807,487.0799865722656000,6.7197999954223630,34.1212997436523440,84.3924179077148400,596.4213256835938000,6.6998100280761720,48.3494606018066400,52,104,83,78,77,15315,2147747126,2147424740,2148006308,2147875922,2147627163,2147071890,2148246052,2147200731,3054,3,13,61154
1375907635,5807,474.5100097656250000,6.9535999298095700,34.1138992309570300,92.2138671875000000,588.8618164062500000,6.9434871673583980,47.3566703796386700,52,103,91,81,77,15316,2147745033,2147426093,2148007963,2147874212,2147625600,2147072201,2148243931,2147202806,1452,4,13,43953
1375907762,5809,462.6199951171875000,7.1890001296997070,34.1049003601074200,100.0022964477539000,581.8961791992188000,7.1675448417663570,46.4092903137207000,50,102,85,79,77,15315,2147747108,2147426825,2148007104,2147874176,2147626358,2147075236,2148239963,2147200502,3587,4,13,64786
1375907879,5805,451.6199951171875000,7.3905000686645510,34.0978012084960940,108.4171981811523400,574.9697875976562000,7.3899121284484860,45.4325294494628900,50,103,86,79,75,15313,2147744694,2147423140,2148007542,2147874020,2147623012,2147074313,2148240182,2147198848,3440,4,13,483
1375908006,5807,439.7799987792969000,7.6788997650146480,34.0918006896972660,118.7724990844726600,566.0733032226562000,7.6749019622802730,44.2685508728027340,50,104,86,80,75,15314,2147744301,2147422336,2148004077,2147872475,2147627748,2147076416,2148240082,2147203026,469,4,12,17789
1375908121,5806,429.0799865722656000,7.9815001487731930,34.0881996154785160,128.5914001464843800,557.2128295898438000,7.9580569267272950,43.2035408020019500,50,104,86,80,74,15315,2147742244,2147424667,2148007305,2147872676,2147620324,2147079552,2148236324,2147199917,3419,3,13,9795
1375908238,5808,418.1400146484375000,8.1843004226684570,34.0946998596191400,135.9328002929687500,550.9136962890625000,8.1589527130126950,42.4417800903320300,50,103,87,80,74,15313,2147743122,2147423542,2148006427,2147874541,2147618477,2147078299,2148235126,2147204763,2526,4,13,17165
1375908353,5811,407.4599914550781000,8.3507003784179690,34.0959014892578100,142.7183074951172000,544.8364868164062000,8.3524627685546880,41.7543601989746100,50,102,88,80,74,15315,2147739849,2147427008,2148007030,2147873179,2147618377,2147082514,2148229577,2147203245,2409,3,13,60986
1375908482,5807,396.4599914550781000,8.6090002059936520,34.0923004150390600,151.7532043457031200,537.0477905273438000,8.6000308990478520,40.8745994567871100,50,104,90,78,73,15311,2147740086,2147424201,2148007753,2147873115,2147616173,2147082258,2148230674,2147201654,1014,4,13,33038
1375908621,5809,386.0400085449219000,8.9090003967285160,34.0992012023925800,162.0917968750000000,527.9818725585938000,8.8875923156738280,39.9085502624511700,50,104,87,79,73,15315,2147741622,2147424713,2148003410,2147875373,2147618843,2147090514,2148226395,2147202624,808,3,14,24507
1375908816,5809,373.1300048828125000,9.4642000198364260,34.1194000244140600,173.6959075927734400,510.1673889160156000,9.4508304595947270,38.7459297180175800,49,106,86,78,72,15314,2147737472,2147427062,2148008109,2147875227,2147611419,2147092589,2148224566,2147204809,2951,3,13,2978
1375908946,5809,361.3800048828125000,9.7673997879028320,34.1291999816894500,181.3468933105468800,500.6177978515625000,9.7518033981323240,38.0477981567382800,50,103,85,79,71,15312,2147734390,2147427776,2148007570,2147873920,2147610395,2147092745,2148223076,2147203126,2782,3,13,11877
1375909061,5805,349.4200134277344000,9.9483995437622070,34.1344985961914060,186.9087066650390600,494.5732116699219000,9.9419822692871100,37.5698204040527340,50,103,85,80,70,15311,2147734866,2147426066,2148006948,2147875794,2147610477,2147091081,2148227785,2147203328,2178,3,13,53605
1375909154,5807,339.2600097656250000,10.1120996475219730,34.1389999389648440,191.3677062988281200,489.2596130371094000,10.1089601516723630,37.1880607604980500,49,106,85,80,71,15311,2147736859,2147428324,2148007515,2147872256,2147610349,2147098377,2148225691,2147206912,1737,3,13,33746
1375909257,5812,328.1099853515625000,10.3641004562377930,34.1470985412597660,194.2053985595703000,480.2226867675781000,10.3924999237060550,36.8539505004882800,49,106,86,79,69,15309,2147734665,2147426066,2148013741,2147872219,2147607926,2147100544,2148221092,2147204315,1496,4,13,24096
1375909372,5805,316.4100036621094000,10.7958002090454100,34.1595993041992200,201.6345977783203000,467.1087951660156000,10.8030195236206050,36.1733894348144500,49,103,87,80,70,15311,2147730496,2147426395,2148015049,2147873170,2147609874,2147101869,2148223744,2147205467,972,3,13,42448
1375909501,5804,305.6300048828125000,11.1718997955322270,34.1664009094238300,205.4001007080078000,455.6585083007812500,11.1606101989746100,35.7577705383300800,50,105,86,80,69,15312,2147729837,2147433005,2148020278,2147872795,2147603309,2147109979,2148227026,2147203766,3031,3,14,42862
1375909666,5808,295.0799865722656000,11.5534000396728520,34.1907005310058600,209.9727935791015600,443.6559143066406000,11.5346298217773440,35.2943496704101560,49,103,86,79,68,15311,2147731867,2147436790,2148028516,2147872283,2147600786,2147115163,2148226989,2147205266,2756,3,14,27815
1375909823,5808,283.5299987792969000,11.9651002883911130,34.2123985290527340,212.7899017333984400,430.0369873046875000,11.9580602645874020,34.9131584167480500,48,103,86,79,69,15309,2147728978,2147437613,2148036772,2147871469,2147601124,2147117184,2148227611,2147204315,2888,3,14,50816
1375909962,5806,272.6499938964844000,12.2186002731323240,34.1733016967773440,202.4510040283203000,421.1581115722656000,12.2335996627807620,35.3789901733398440,49,105,88,79,68,15307,2147728630,2147446528,2148060690,2147877467,2147600585,2147128073,2148237741,2147209270,2052,3,13,32370
1375910115,5807,261.6099853515625000,12.9960002899169920,34.2336006164550800,209.0077056884765600,396.4619140625000000,12.9980001449584960,34.6029090881347660,49,104,87,79,68,15307,2147729005,2147452013,2148072923,2147874285,2147596736,2147131282,2148245366,2147209481,1714,3,14,45873
1375910251,5806,250.9600067138672000,13.9765996932983400,34.3059005737304700,208.3388061523437500,362.9016113281250000,14.0326299667358400,34.1268386840820300,48,105,86,80,67,15303,2147724251,2147467757,2148109248,2147872566,2147592658,2147150016,2148260790,2147212050,1117,3,14,45598
1375910416,5807,236.0899963378906200,15.4221000671386720,34.4505004882812500,206.7906036376953000,316.6824035644531000,15.4513998031616210,33.5257110595703100,49,104,84,79,66,15300,2147723520,2147486052,2148164352,2147874020,2147586340,2147167296,2148273472,2147213933,2836,3,13,4655
1375910516,5808,225.1699981689453000,16.3854007720947270,34.5797004699707000,210.6179962158203000,286.0952148437500000,16.3875408172607420,32.8631095886230500,48,103,89,81,64,15301,2147730404,2147539776,2148286738,2147873554,2147585865,2147205595,2148324708,2147220233,1894,2,13,45313
1375910619,5805,213.9400024414062500,17.0723991394042970,34.6687011718750000,214.3816070556640600,263.7840881347656000,17.0694694519042970,32.3366317749023440,50,105,85,80,65,15300,2147738340,2147604288,2148410816,2147872640,2147585344,2147246217,2148383570,2147226112,1007,2,14,32367
1375910748,5805,201.8000030517578000,18.0655994415283200,34.7983016967773440,216.4835052490234400,230.7519989013672000,18.0783691406250000,31.7611103057861330,50,107,85,79,63,15288,2147759259,2147702262,2148596598,2147873371,2147588132,2147315044,2148471552,2147231835,835,3,14,3880
1375910805,5809,197.8600006103515600,18.3201999664306640,34.8395004272460940,217.4389953613281200,223.3287048339843800,18.3050708770751950,31.6077404022216800,52,106,84,81,65,15294,2147767250,2147748717,2148683702,2147875163,2147592969,2147345929,2148510317,2147234331,3501,2,14,43960
1375910860,5808,194.3800048828125000,18.4459991455078120,34.8586997985839840,217.9797058105468800,218.6356048583984400,18.4483890533447270,31.5144004821777340,52,104,86,80,64,15292,2147778185,2147793371,2148753581,2147873746,2147596470,2147366893,2148550400,2147240749,3162,2,15,25008
1375910927,5808,190.5399932861328000,18.5604000091552730,34.8785018920898440,218.7843933105468800,214.4109039306640600,18.5774097442626950,31.4140796661376950,52,106,85,81,64,15288,2147789540,2147838674,2148846253,2147874870,2147602057,2147403474,2148591990,2147244992,2651,3,15,64295
1375911011,5807,186.7799987792968800,18.8927001953125000,34.9227981567382800,219.1331024169922000,205.7171020507812500,18.8429393768310550,31.2775306701660160,54,108,85,80,63,15288,2147809499,2147889974,2148935899,2147876132,2147605970,2147431597,2148633234,2147248640,2481,2,15,41793
1375911150,5811,183.1699981689453000,19.2150001525878900,34.9715995788574200,220.5131072998047000,194.0169982910156200,19.2003707885742200,31.0466403961181640,57,108,87,81,63,15281,2147831360,2147962971,2149064064,2147875913,2147617179,2147485897,2148701814,2147249536,2841,2,15,43878
1375911313,5806,177.8399963378906200,19.6184005737304700,35.0250015258789060,222.0540008544922000,181.1354980468750000,19.5940399169921880,30.7941703796386720,60,115,86,81,63,15276,2147831323,2147889078,2148857819,2147873298,2147617600,2147451876,2148601472,2147243318,2379,2,15,47211
1375911404,5809,173.5200042724609400,20.0065994262695300,35.0764999389648440,221.4542999267578000,168.2790069580078000,19.9871406555175780,30.6528205871582030,67,110,87,80,62,15273,2147933558,2148238930,2149530889,2147877760,2147664219,2147663972,2148926427,2147267785,1442,2,15,37178
1375911495,5810,169.3500061035156200,20.1399993896484380,35.0965995788574200,223.2583007812500000,163.8621063232422000,20.1222591400146500,30.5025196075439450,69,112,87,80,61,15263,2147996946,2148384420,2149771346,2147878582,2147690386,2147754139,2149048603,2147276324,1002,2,15,11631
1375911574,5808,165.6100006103515600,20.1830997467041000,35.1034011840820300,224.0753021240234400,161.9790039062500000,20.1798706054687500,30.4363498687744140,70,115,86,81,62,15263,2147996470,2148340589,2149655396,2147877403,2147695542,2147742528,2149013385,2147275840,1111,2,15,18622
1375911655,5807,161.7500000000000000,20.2584991455078120,35.1082992553710940,223.4400939941406200,159.5567016601562500,20.2539901733398440,30.4360294342041000,71,118,88,81,62,15255,2148140644,2148735899,2150365293,2147882816,2147756068,2147968182,2149332973,2147299154,1138,2,15,60150
1375911746,5803,158.0200042724609400,20.2861003875732420,35.1073989868164060,222.3144989013672000,158.5942993164062500,20.2834396362304700,30.4802894592285160,72,115,86,81,62,15264,2148206454,2148836315,2150512036,2147886747,2147781714,2148023305,2149403081,2147303542,1506,2,16,23327
1375911861,5804,153.7700042724609400,20.3983001708984380,35.1226997375488300,222.2754058837890600,155.5442047119140600,20.3767890930175780,30.4418907165527340,75,114,86,81,62,15256,2148356827,2149120027,2150953252,2147888137,2147842550,2148186011,2149595565,2147317549,1315,2,15,30643
1375911969,5804,149.6699981689453000,20.5513992309570300,35.1288986206054700,221.5482025146484400,149.9049987792968800,20.5494308471679700,30.4042301177978500,83,116,86,81,61,15248,2148532324,2149427885,2151440877,2147891446,2147916982,2148346258,2149808685,2147334811,3227,1,15,2533
1375912048,5808,145.5899963378906200,20.7607994079589840,35.1436996459960940,221.0433044433593800,142.7207031250000000,20.7694606781005860,30.3351097106933600,90,116,88,81,62,15241,2148726637,2149771136,2151962358,2147897517,2147994614,2148506404,2150029732,2147353170,2176,1,15,39154
1375912127,5809,141.3300018310547000,21.0077991485595700,35.1834983825683600,222.9407958984375000,135.5997924804687500,20.9876594543457030,30.1456699371337900,95,119,88,82,62,15228,2149006866,2150262281,2152724790,2147906688,2148103323,2148747593,2150319396,2147376256,1513,2,15,7159
1375912206,5809,137.3300018310547000,21.2126007080078120,35.1978988647460940,224.1192016601562500,128.5196990966797000,21.2047290802001950,29.9939098358154300,111,122,89,82,61,15215,2149357595,2150862061,2153583744,2147917741,2148245860,2149016557,2150649334,2147404315,765,2,15,12325
1375912287,5809,133.7299957275390600,21.5349998474121100,35.2108001708984400,225.2145996093750000,118.5099029541015600,21.5118598937988280,29.8092803955078120,126,122,86,81,60,15197,2149827465,2151621796,2154643264,2147928950,2148412553,2149335314,2151041033,2147437421,3070,2,15,34009
1375912390,5807,130.0800018310547000,21.6690006256103500,35.2321014404296900,226.3679046630859400,113.5140991210937500,21.6652507781982420,29.6875705718994140,130,129,90,83,61,15189,2150421531,2152527405,2155839862,2147944310,2148617581,2149686006,2151460434,2147473764,2651,1,15,21664
1375912505,5807,126.0899963378906200,22.0296001434326170,35.2841987609863300,229.9187927246093800,102.7210998535156200,21.9968891143798830,29.3763999938964840,131,125,91,81,62,15179,2151141293,2153669979,2157349632,2147970624,2148887003,2150140306,2151990043,2147521846,1662,1,15,40361
1375912625,5809,121.6299972534179700,22.2071990966796880,35.3050994873046900,234.5287017822265600,96.4253463745117200,22.1905097961425780,29.0772705078125000,126,119,87,82,61,15180,2152299081,2155477220,2159664585,2148005074,2149352000,2150890377,2152838738,2147605622,274,2,15,20599
1375912716,5807,117.8199996948242200,22.2618999481201170,35.3093986511230500,237.0596008300781200,94.2386932373046900,22.2577896118164060,28.9316902160644530,127,120,89,82,60,15182,2153607625,2157407332,2162023497,2148047506,2149868324,2151703360,2153720539,2147687524,3043,2,15,27078
1375912819,5811,114.1399993896484400,22.4039993286132800,35.2952995300293000,237.2418975830078000,89.6036682128906200,22.4004707336425780,28.8644790649414060,132,122,89,83,60,15159,2155427126,2160037357,2165030710,2148107483,2150555446,2152726381,2154774939,2147788800,2435,1,15,61093
1375912927,5809,109.6699981689453100,22.6222000122070300,35.3045005798339840,237.4217071533203000,82.6968078613281200,22.6132106781005860,28.7688407897949220,103,120,87,83,59,15176,2158345225,2164003648,2169190619,2148199954,2151718674,2154451062,2156529051,2147956132,1727,1,15,40128
1375913006,5808,105.6800003051757800,22.8153991699218750,35.3129005432128900,237.4913940429687500,76.6054534912109400,22.8009891510009770,28.6887397766113280,91,122,87,83,59,15187,2161193792,2167665280,2172952658,2148304274,2153081572,2156480804,2158470500,2148141156,583,1,16,39383
1375913085,5809,101.3899993896484400,22.9181995391845700,35.3196983337402340,238.6175994873047000,73.0157623291015600,22.9117107391357420,28.5919895172119140,83,123,88,84,57,15182,2164747401,2171957833,2177362066,2148466176,2154755419,2158889078,2160727945,2148357083,3176,2,15,50576
1375913140,5808,98.0400009155273400,22.9449996948242200,35.3177986145019500,239.0558013916015600,71.5383834838867200,22.9573001861572270,28.5534801483154300,80,123,90,84,59,15183,2167975158,2175772845,2181280365,2148626276,2156291849,2161028653,2162703003,2148548562,3013,1,15,24328
1375913197,5806,94.5000000000000000,23.0956001281738280,35.3115997314453100,238.0529022216797000,67.1555175781250000,23.0925903320312500,28.5440406799316400,77,123,89,85,58,15186,2171991286,2180437778,2186001481,2148819693,2158234057,2163679972,2165053833,2148787465,3212,1,16,23977
1375913252,5808,91.3300018310546900,23.3355998992919920,35.3133010864257800,237.8661956787109400,59.8579292297363300,23.3180294036865230,28.4611606597900400,76,124,89,86,61,15183,2176086473,2185143341,2190717933,2149069037,2160268690,2166393737,2167478555,2149023158,3129,1,16,14108
1375913307,5806,88.6500015258789000,23.4036998748779300,35.3146018981933600,240.7386932373047000,57.4472312927246100,23.3925495147705080,28.3009891510009770,77,128,90,84,58,15167,2179013531,2188182838,2193471049,2149255899,2161856237,2168330075,2169078326,2149194459,2544,1,16,9596
1375913362,5806,86.2600021362304700,23.4346008300781250,35.3152999877929700,243.3233032226562500,56.2930183410644500,23.4282398223876950,28.1714496612548830,77,125,93,85,58,15162,2177811346,2185427474,2189058075,2149168457,2162065389,2168019062,2168244818,2149109842,2546,1,16,30048
1375913417,5809,84.0899963378906200,23.4545001983642580,35.3151016235351560,244.7548065185547000,55.4164505004882800,23.4553508758544920,28.0971794128417970,77,126,91,83,58,15158,2174055177,2179662838,2181826733,2148999936,2160547291,2165143003,2164893558,2148820379,2785,2,16,30332
1375913472,5810,82.2500000000000000,23.5198001861572270,35.3139991760253900,246.2678070068359400,53.7139511108398440,23.5080108642578120,28.0097694396972660,78,127,92,84,57,15146,2190017801,2200796013,2206364004,2150064923,2167989677,2175774729,2175236260,2149851227,2610,2,16,31193
1375913529,5808,80.8099975585937500,23.5781993865966800,35.3166999816894500,247.1988983154297000,51.8679695129394500,23.5651206970214840,27.9462890625000000,77,127,92,86,58,15141,2193772635,2204298934,2208860525,2150251684,2170472082,2178784301,2177669705,2150095588,2610,1,16,51265
1375913608,5808,79.4700012207031200,23.6068992614746100,35.3163986206054700,248.4286041259765600,50.6662597656250000,23.6023101806640620,27.8781509399414060,74,127,90,84,55,15155,2196954523,2207564845,2211756178,2150471972,2172650441,2181152640,2179353828,2150266669,2803,1,16,28247
1375913747,5802,77.5899963378906200,23.6846008300781250,35.3179016113281250,249.1015930175781200,48.1494407653808600,23.6802101135253900,27.8179893493652340,75,126,91,84,58,15149,2203658477,2214246601,2217316553,2150964662,2176990217,2185897362,2182697252,2150656722,3509,1,16,21624
1375913879,5806,74.8499984741211000,23.8885002136230470,35.3114013671875000,249.3742980957031200,41.7195701599121100,23.8793792724609380,27.7271003723144530,72,128,91,85,58,15137,2214998582,2225583350,2227446829,2151782948,2184137645,2193750016,2188488969,2151292662,2936,1,16,57193
1375913934,5809,72.8499984741211000,24.0508995056152340,35.3091011047363300,249.0845947265625000,36.7031517028808600,24.0349102020263670,27.6776103973388670,71,128,92,85,55,15136,2221278930,2231399670,2232321362,2152353325,2188528658,2198357083,2191733147,2151663058,2455,1,16,55063
1375913989,5806,70.9400024414062500,24.1907005310058600,35.3054008483886700,249.4662017822265600,32.2850799560546900,24.1719894409179700,27.6071205139160160,68,129,90,85,57,15125,2221168438,2229702829,2229265069,2152392301,2189541165,2198606372,2191145572,2151638829,2471,1,16,4829
1375914044,5809,69.1900024414062500,24.3267002105712900,35.3084983825683600,249.5021057128906200,28.9291591644287100,24.2761802673339840,27.5643901824951170,67,129,94,85,55,15128,2233421604,2242991753,2242534793,2153580909,2197489344,2207835830,2198587291,2152493385,2327,1,16,63638
1375914111,5809,67.3600006103515600,24.3880004882812500,35.3100013732910160,249.2989044189453000,25.8323898315429700,24.3723793029785160,27.5351009368896500,67,128,93,86,58,15117,2237946834,2247476672,2246777124,2154108141,2200618432,2211100461,2200905161,2152780580,2417,1,16,39820
1375914194,5808,64.8000030517578100,24.5433006286621100,35.3210983276367200,248.8054046630859400,20.6373691558837900,24.5338592529296880,27.4924907684326170,66,127,93,86,57,15129,2249383140,2258672338,2257039396,2155566482,2209430354,2220375890,2207700498,2153630244,1980,1,16,52264
1375914249,5809,62.4599990844726560,24.6040992736816400,35.3125000000000000,249.3222045898437500,18.1848793029785160,24.6101493835449220,27.4404392242431640,66,129,93,85,55,15121,2260273718,2269523072,2267206710,2157164781,2218500050,2229991936,2214855012,2154608896,1476,1,16,52422
1375914304,5808,60.2700004577636700,24.7381000518798830,35.3041992187500000,249.4069976806640600,14.5744400024414060,24.7225093841552730,27.3927097320556640,65,138,92,85,54,15113,2271991881,2282118720,2280061403,2158937014,2226265581,2238066486,2220484068,2155364105,864,1,16,9102
1375914359,5808,58.5299987792968750,24.7479991912841800,35.3041000366210940,250.0608978271484400,13.6666898727417000,24.7507705688476560,27.3538093566894530,65,132,93,87,57,15117,2275403830,2283192356,2279218093,2159663780,2232497590,2244029220,2224321124,2155913197,576,1,16,36178
1375914414,5808,57.2599983215332000,24.8106994628906250,35.3008003234863300,250.3195037841797000,11.8336801528930660,24.8078594207763670,27.3203392028808600,62,128,94,85,56,15116,2278913033,2285815195,2281331172,2160176274,2236265435,2247477979,2226443282,2156197659,294,1,16,7106
1375914522,5804,55.2599983215332000,24.9706993103027340,35.2868003845214840,250.6235046386718800,7.1421060562133790,24.9540500640869140,27.2504005432128900,59,133,92,85,54,15113,2298092004,2302772781,2296357202,2162575049,2252541778,2262898130,2236182646,2157453110,2734,1,16,22783
1375914894,5810,52.9700012207031250,25.9447994232177730,35.2762985229492200,245.5825958251953000,-24.2137908935546880,25.9344692230224600,27.0841102600097660,58,131,92,89,59,15105,2297159899,2297012836,2286887926,2162781312,2266631369,2271849737,2238475894,2157746825,703,1,16,51809
1375914961,5809,51.2099990844726560,26.0041999816894530,35.2756996154785160,245.7454986572265600,-26.4666309356689450,26.0051498413085940,27.0497703552246100,58,131,94,87,61,15110,2336887542,2338862372,2329203602,2169158473,2296437485,2302709430,2260472804,2160644178,213,1,16,48608
1375915064,5810,49.6800003051757800,26.3029994964599600,35.2798995971679700,244.7987976074218800,-32.8092689514160160,26.2043094635009770,27.0134506225585940,57,129,90,86,58,15103,2335961179,2335020086,2323648841,2169145142,2302748873,2307078848,2262218880,2161216420,3396,1,16,19158
1375915500,5810,47.1699981689453100,27.1902008056640620,35.3297004699707000,230.0917053222656200,-64.2268218994140600,27.1949996948242200,27.2845306396484380,54,125,92,86,58,15137,2356559680,2355460004,2343462070,2174864987,2336899858,2335737307,2278985554,2163345325,2093,1,16,17758
1375915579,5808,44.9599990844726560,27.2180004119873050,35.3316001892089840,228.9020996093750000,-65.2121734619140600,27.2261791229248050,27.3272705078125000,53,124,90,83,64,15121,2370953590,2369783469,2358373677,2180377060,2352553206,2347465984,2285395446,2164545517,2273,1,17,35347
1375915634,5808,43.0699996948242200,27.2262992858886720,35.3321990966796900,228.8049011230468800,-65.5721206665039000,27.2375793457031250,27.3272800445556640,53,126,94,85,54,15127,2372972580,2370515949,2358715748,2182936237,2371094235,2363736283,2295526729,2166075090,2387,1,16,15664
1375915689,5804,40.9300003051757800,27.2367000579834000,35.3324012756347660,228.5932006835937500,-66.0139007568359400,27.2515697479248050,27.3315696716308600,53,124,91,84,53,15115,2398744594,2398008603,2387582656,2190567716,2396332251,2386714797,2310236836,2168703652,2442,1,16,41483
1375915772,5804,37.0800018310546900,27.3152999877929700,35.3213996887207000,228.0682067871093800,-68.3103179931640600,27.3242893218994140,27.3277702331542970,54,125,91,84,56,15116,2411414537,2408605613,2398893046,2201235446,2434642048,2418075364,2328988288,2172614500,2519,1,17,50136
1375915827,5805,34.2599983215332000,27.3833999633789060,35.3091011047363300,226.9945983886718800,-70.5618896484375000,27.3956394195556640,27.3499794006347660,52,123,89,85,57,15133,2432535643,2429962194,2420987300,2211681810,2469450560,2448197595,2348106139,2176588489,2449,1,17,40227
1375915882,5803,31.8299999237060550,27.4715995788574220,35.2851982116699200,226.1260986328125000,-73.5069122314453100,27.4890193939209000,27.3544902801513670,51,121,88,84,56,15135,2467309824,2467282989,2462338697,2232152704,2498773952,2473440621,2364251766,2180793673,2638,2,17,4107